Regional Weather Roundup
Issued by NWS Cleveland, OH

Home | Current Version | Previous Version | Text Only | Print | Product List | Glossary Off
Versions: 1 2 3 4 5 6 7 8 9 10 11 12 13 14 15 16 17 18 19 20 21 22 23 24 25 26 27 28 29 30 31 32 33 34 35 36 37 38 39 40 41 42 43 44 45 46 47 48 49 50

000
ASUS41 KCLE 071202
RWRCLE
OHIO REGIONAL WEATHER ROUNDUP
NATIONAL WEATHER SERVICE CLEVELAND, OH
700 AM EST SUN FEB 07 2016

NOTE: "FAIR" INDICATES FEW OR NO CLOUDS BELOW 12,000 FEET WITH NO
SIGNIFICANT WEATHER AND/OR OBSTRUCTIONS TO VISIBILITY.

OHZ001>008-015>018-024>027-034-035-043-044-071300-
   NORTHWEST OHIO

CITY           SKY/WX    TMP DP  RH WIND       PRES   REMARKS
DEFIANCE       PTCLDY    33  25  72 S6        30.01F WCI  28
FINDLAY        PTCLDY    31  24  75 S8        30.03F WCI  23
TOLEDO EXPRESS CLOUDY    33  24  69 SW7       30.01F WCI  27
TOLEDO EXEC    MOCLDY    33  25  72 SW9       30.03F WCI  25
LIMA           CLEAR     34  24  67 SW8       30.03F WCI  27
$$

OHZ009>014-019>023-028>033-038-089-071300-
   NORTHEAST OHIO

CITY           SKY/WX    TMP DP  RH WIND       PRES   REMARKS
CLE-HOPKINS    CLEAR     33  21  61 S9        30.08F WCI  25
CLE-LAKEFRONT  CLEAR     33  21  61 S8        30.05F WCI  26
CUY CO. ARPT   PTCLDY    32  23  69 S8        30.06  WCI  25
LORAIN-ELYRIA  PTCLDY    30  21  69 SW7       30.05F WCI  23
ASHTABULA      CLEAR     27  19  72 S5        30.08F WCI  22
AKRON-CANTON   CLEAR     25  18  74 S8        30.07F WCI  16
WOOSTER        PTCLDY    28  20  71 CALM      30.07F
MANSFIELD      CLEAR     28  22  78 S7        30.05F WCI  21
YOUNGSTOWN     CLEAR     23  18  81 SE5       30.07F WCI  17
$$

OHZ042-051>053-060>062-070>072-077>081-071300-
  SOUTHWEST OHIO

CITY           SKY/WX    TMP DP  RH WIND       PRES   REMARKS
CINC-COVINGTON CLEAR     31  22  69 S7        30.11F WCI  24
CINC-LUNKEN    CLEAR     24  23  96 CALM      30.14F
HAMILTON       CLEAR     22  20  92 E3        30.12F
DAYTON         PTCLDY    32  24  72 SW12      30.07F WCI  23
WRIGHT-PAT AFB NOT AVBL
DAYTON GENERAL CLEAR     30  21  69 S6        30.08F WCI  24
WILMINGTON     CLEAR     30  22  72 S6        30.10F WCI  24
$$

OHZ036-037-039>041-045>050-054>059-063>069-073>076-082>088-071300-
  CENTRAL AND SOUTHEAST OHIO

CITY           SKY/WX    TMP DP  RH WIND       PRES   REMARKS
COLUMBUS       CLEAR     26  19  74 CALM      30.10F
OSU AIRPORT    CLEAR     26  21  81 S3        30.08F
BOLTON FIELD   NOT AVBL
RICKENBACK AFB NOT AVBL
NEWARK         CLEAR     21  17  84 CALM      30.10F
MARION         CLEAR     28  20  71 S8        30.06F WCI  20
LANCASTER      CLEAR     25  19  78 SE3       30.11F
ZANESVILLE     CLEAR     23  17  78 CALM      30.12R
NEW PHILLY     CLEAR     22  18  85 SE5       30.12S WCI  16
$$



USA.gov is the U.S. government's official web portal to all federal, state and local government web resources and services.